Location: Unspecified
(0.0000°N, 0.0000°E)
Time: 03:25:37
(UTC+00:00)

Vanguard 1 - Pass Details

Date: 16 December 2023
Orbit: 653 x 3826 km, 34.3° (Epoch: 22 February)

Event Time Altitude Azimuth Distance (km) Brightness Sun altitude
Rises 23:04:09 0° 305° (NW) 7,506 14.5 -63.5°
Reaches altitude 10° 23:08:53 10° 304° (NW) 6,693 14.2 -64.0°
Enters shadow 23:12:10 18° 303° (WNW) 6,144 13.9 -64.4°
Maximum altitude 23:32:38 80° 219° (SW) 3,692 - -66.0°
Exits shadow 23:44:58 32° 137° (SE) 4,419 13.3 -66.5°
Drops below altitude 10° 23:51:20 10° 132° (SE) 5,471 14.0 -66.6°
Sets 23:54:46 0° 131° (SE) 6,148 14.3 -66.7°
